Weather History for Hallock, MN

Change the Weather History Date:

Sunday, September 29, 2013

  Actual Average Record
Temperature  
Mean Temperature 55 °F -  
Max Temperature 71 °F 59 °F 86 °F (2012)
Min Temperature 39 °F 36 °F 22 °F (1945)
Degree Days  
Heating Degree Days 10    
Growing Degree Days 5 (Base 50)    
Moisture  
Dew Point 46 °F    
Average Humidity 73    
Maximum Humidity 93    
Minimum Humidity 49    
Precipitation  
Precipitation 0.00 in - - ()
Sea Level Pressure  
Sea Level Pressure 29.65 in    
Wind  
Wind Speed 9 mph (South)    
Max Wind Speed 20 mph    
Max Gust Speed 24 mph    
Visibility 10 miles    
Events      
Averages and records for this station are not official NWS values.
T = Trace of Precipitation, MM = Missing Value Source: NWS Daily Summary

Daily Weather History Graph

Daily Weather History Graph

Search for Another Location

Airport:

Trip Planner

Search our weather history database for the weather conditions in past years. The results will help you decide how hot, cold, wet, or windy it might be!

Date:

Astronomy

Sep. 29, 2013 Rise Set
Actual Time 7:24 AM CDT 7:10 PM CDT
Civil Twilight 6:53 AM CDT 7:41 PM CDT
Nautical Twilight 6:16 AM CDT 8:18 PM CDT
Astronomical Twilight 5:39 AM CDT 8:55 PM CDT
Moon 1:44 AM CDT (9/29) 4:27 PM CDT (9/29)
Length of Visible Light 12h 48m
Length of Day
11h 45m
Waning Crescent, 27% of the Moon is Illuminated
Sep 29
Waning Crescent
Oct 4
New
Oct 11
First Quarter
Oct 18
Full
Oct 26
Last Quarter

Hourly Weather History & Observations

Time (CDT) Temp. Windchill Dew Point Humidity Pressure Visibility Wind Dir Wind Speed Gust Speed Precip Events Conditions
12:13 AM 46.4 °F 42.9 °F 44.6 °F 93% 29.72 in 10.0 mi SSW 6.9 mph - N/A   Clear
12:32 AM 46.4 °F 43.5 °F 44.6 °F 93% 29.72 in 10.0 mi South 5.8 mph - N/A   Clear
12:44 AM 46.4 °F 44.3 °F 44.6 °F 93% 29.72 in 10.0 mi SSW 4.6 mph - N/A   Clear
1:13 AM 46.4 °F 44.3 °F 42.8 °F 87% 29.72 in 10.0 mi SSW 4.6 mph - N/A   Clear
1:33 AM 44.6 °F 41.4 °F 42.8 °F 93% 29.73 in 10.0 mi SSW 5.8 mph - N/A   Clear
1:53 AM 44.6 °F 42.2 °F 42.8 °F 93% 29.73 in 10.0 mi SSW 4.6 mph - N/A   Clear
2:13 AM 42.8 °F - 41.0 °F 93% 29.73 in 10.0 mi Calm Calm - N/A   Clear
2:32 AM 42.8 °F - 39.2 °F 87% 29.73 in 10.0 mi North - - N/A   Clear
2:53 AM 42.8 °F 38.6 °F 41.0 °F 93% 29.73 in 10.0 mi South 6.9 mph - N/A   Clear
3:13 AM 42.8 °F 38.6 °F 41.0 °F 93% 29.73 in 10.0 mi South 6.9 mph - N/A   Clear
3:33 AM 42.8 °F 38.0 °F 39.2 °F 87% 29.72 in 10.0 mi South 8.1 mph - N/A   Clear
3:53 AM 42.8 °F 38.6 °F 39.2 °F 87% 29.72 in 10.0 mi South 6.9 mph - N/A   Clear
4:13 AM 42.8 °F 38.6 °F 39.2 °F 87% 29.72 in 10.0 mi SSE 6.9 mph - N/A   Clear
4:33 AM 41.0 °F 36.4 °F 39.2 °F 93% 29.73 in 10.0 mi South 6.9 mph - N/A   Clear
4:53 AM 42.8 °F 38.6 °F 39.2 °F 87% 29.73 in 10.0 mi South 6.9 mph - N/A   Clear
5:13 AM 41.0 °F 37.1 °F 39.2 °F 93% 29.73 in 10.0 mi South 5.8 mph - N/A   Clear
5:33 AM 39.2 °F 34.2 °F 37.4 °F 93% 29.73 in 10.0 mi SSE 6.9 mph - N/A   Clear
5:53 AM 41.0 °F 36.4 °F 37.4 °F 87% 29.73 in 10.0 mi SSE 6.9 mph - N/A   Clear
6:12 AM 39.2 °F 34.2 °F 37.4 °F 93% 29.73 in 10.0 mi SSE 6.9 mph - N/A   Clear
6:33 AM 39.2 °F 34.2 °F 37.4 °F 93% 29.73 in 10.0 mi SSE 6.9 mph - N/A   Clear
6:53 AM 39.2 °F 34.2 °F 37.4 °F 93% 29.74 in 10.0 mi SSE 6.9 mph - N/A   Clear
7:13 AM 39.2 °F 34.2 °F 37.4 °F 93% 29.73 in 10.0 mi SSE 6.9 mph - N/A   Clear
7:32 AM 39.2 °F 33.6 °F 37.4 °F 93% 29.74 in 10.0 mi SSE 8.1 mph - N/A   Clear
7:53 AM 39.2 °F 33.6 °F 37.4 °F 93% 29.73 in 10.0 mi SSE 8.1 mph - N/A   Clear
8:13 AM 42.8 °F 37.5 °F 39.2 °F 87% 29.72 in 10.0 mi SSE 9.2 mph - N/A   Clear
8:33 AM 42.8 °F 37.5 °F 41.0 °F 93% 29.72 in 10.0 mi SSE 9.2 mph - N/A   Clear
8:53 AM 46.4 °F 41.5 °F 42.8 °F 87% 29.72 in 10.0 mi SSE 10.4 mph - N/A   Clear
9:13 AM 46.4 °F 42.4 °F 44.6 °F 93% 29.72 in 10.0 mi SSE 8.1 mph - N/A   Clear
9:33 AM 48.2 °F - 44.6 °F 87% 29.71 in 10.0 mi SSE 10.4 mph - N/A   Clear
9:52 AM 51.8 °F - 46.4 °F 82% 29.70 in 10.0 mi SSE 11.5 mph - N/A   Clear
10:13 AM 53.6 °F - 46.4 °F 77% 29.70 in 10.0 mi SSE 10.4 mph - N/A   Clear
10:33 AM 55.4 °F - 46.4 °F 72% 29.70 in 10.0 mi South 12.7 mph - N/A   Clear
10:52 AM 57.2 °F - 46.4 °F 67% 29.69 in 10.0 mi South 13.8 mph - N/A   Clear
11:13 AM 59.0 °F - 48.2 °F 67% 29.68 in 10.0 mi South 15.0 mph 19.6 mph N/A   Clear
11:33 AM 60.8 °F - 48.2 °F 63% 29.67 in 10.0 mi South 13.8 mph 18.4 mph N/A   Clear
11:52 AM 62.6 °F - 48.2 °F 59% 29.67 in 10.0 mi South 15.0 mph 18.4 mph N/A   Clear
12:13 PM 62.6 °F - 51.8 °F 68% 29.66 in 10.0 mi South 16.1 mph 20.7 mph N/A   Clear
12:33 PM 62.6 °F - 51.8 °F 68% 29.66 in 10.0 mi South 15.0 mph - N/A   Clear
12:52 PM 64.4 °F - 51.8 °F 64% 29.65 in 10.0 mi South 13.8 mph 18.4 mph N/A   Clear
1:13 PM 66.2 °F - 51.8 °F 60% 29.64 in 10.0 mi South 17.3 mph 20.7 mph N/A   Clear
1:33 PM 66.2 °F - 51.8 °F 60% 29.63 in 10.0 mi South 17.3 mph - N/A   Clear
1:52 PM 68.0 °F - 51.8 °F 56% 29.63 in 10.0 mi South 13.8 mph - N/A   Clear
2:13 PM 68.0 °F - 51.8 °F 56% 29.62 in 10.0 mi South 16.1 mph 23.0 mph N/A   Clear
2:33 PM 68.0 °F - 53.6 °F 60% 29.61 in 10.0 mi South 15.0 mph 21.9 mph N/A   Clear
2:52 PM 71.6 °F - 53.6 °F 53% 29.61 in 10.0 mi South 19.6 mph 24.2 mph N/A   Clear
3:13 PM 71.6 °F - 51.8 °F 50% 29.60 in 10.0 mi South 16.1 mph 21.9 mph N/A   Clear
3:33 PM 69.8 °F - 53.6 °F 56% 29.59 in 10.0 mi South 13.8 mph 21.9 mph N/A   Clear
3:52 PM 69.8 °F - 53.6 °F 56% 29.59 in 10.0 mi South 13.8 mph 20.7 mph N/A   Clear
4:13 PM 71.6 °F - 51.8 °F 50% 29.58 in 10.0 mi South 15.0 mph 20.7 mph N/A   Clear
4:33 PM 69.8 °F - 51.8 °F 53% 29.58 in 10.0 mi South 13.8 mph - N/A   Clear
4:53 PM 69.8 °F - 51.8 °F 53% 29.58 in 10.0 mi South 9.2 mph - N/A   Clear
5:13 PM 69.8 °F - 53.6 °F 56% 29.58 in 10.0 mi SSE 9.2 mph - N/A   Clear
5:33 PM 69.8 °F - 51.8 °F 53% 29.57 in 10.0 mi South 12.7 mph - N/A   Clear
5:53 PM 69.8 °F - 50.0 °F 49% 29.57 in 10.0 mi South 13.8 mph 19.6 mph N/A   Clear
6:13 PM 69.8 °F - 51.8 °F 53% 29.57 in 10.0 mi South 12.7 mph - N/A   Clear
6:33 PM 69.8 °F - 51.8 °F 53% 29.58 in 10.0 mi South 13.8 mph 17.3 mph N/A   Clear
6:53 PM 66.2 °F - 51.8 °F 60% 29.58 in 10.0 mi South 11.5 mph - N/A   Clear
7:13 PM 64.4 °F - 51.8 °F 64% 29.58 in 10.0 mi South 9.2 mph - N/A   Clear
7:33 PM 62.6 °F - 51.8 °F 68% 29.57 in 10.0 mi SSE 9.2 mph - N/A   Clear
7:53 PM 62.6 °F - 51.8 °F 68% 29.57 in 10.0 mi SSE 8.1 mph - N/A   Clear
8:13 PM 60.8 °F - 51.8 °F 72% 29.56 in 10.0 mi SSE 10.4 mph - N/A   Clear
8:33 PM 60.8 °F - 51.8 °F 72% 29.55 in 10.0 mi SSE 10.4 mph - N/A   Clear
8:53 PM 62.6 °F - 50.0 °F 63% 29.55 in 10.0 mi SSE 11.5 mph - N/A   Clear
9:13 PM 62.6 °F - 48.2 °F 59% 29.55 in 10.0 mi SSE 11.5 mph - N/A   Clear
9:33 PM 60.8 °F - 48.2 °F 63% 29.54 in 10.0 mi SSE 9.2 mph - N/A   Clear
9:53 PM 59.0 °F - 48.2 °F 67% 29.53 in 10.0 mi SSE 9.2 mph - N/A   Clear
10:13 PM 60.8 °F - 48.2 °F 63% 29.53 in 10.0 mi SSE 10.4 mph - N/A   Clear
10:33 PM 60.8 °F - 48.2 °F 63% 29.52 in 10.0 mi SSE 10.4 mph - N/A   Clear
10:53 PM 60.8 °F - 48.2 °F 63% 29.51 in 10.0 mi SSE 9.2 mph - N/A   Clear
11:13 PM 60.8 °F - 48.2 °F 63% 29.51 in 10.0 mi SSE 8.1 mph - N/A   Clear
11:33 PM 60.8 °F - 48.2 °F 63% 29.50 in 10.0 mi SSE 8.1 mph - N/A   Clear
11:53 PM 59.0 °F - 48.2 °F 67% 29.50 in 10.0 mi SSE 8.1 mph - N/A   Clear